| time (UTC) | temp F | wind direction | speed knots | gust knots | rain 1hr in | rain 24hr in | rain mn in | humidity % | barometer mb |
| 20260901203511 | 90 | 195 | 4.3 | 3.5 | 0.00 | 0.00 | 0.00 | 55 | 1012.4 |
| 20260901203011 | 91 | 191 | 0.0 | 4.3 | 0.00 | 0.00 | 0.00 | 56 | 1012.4 |
| 20260901202513 | 91 | 191 | 0.0 | 4.3 | 0.00 | 0.00 | 0.00 | 56 | 1012.7 |
| 20260901201511 | 90 | 190 | 0.0 | 3.5 | 0.00 | 0.00 | 0.00 | 56 | 1012.7 |
| 20260901201011 | 90 | 191 | 2.6 | 2.6 | 0.00 | 0.00 | 0.00 | 58 | 1012.9 |
| 20260901200511 | 89 | 191 | 0.0 | 2.6 | 0.00 | 0.00 | 0.00 | 60 | 1012.9 |
| 20260901195511 | 89 | 310 | 0.0 | 0.0 | 0.00 | 0.00 | 0.00 | 66 | 1012.9 |
| 20260901195011 | 89 | 309 | 0.0 | 0.0 | 0.00 | 0.00 | 0.00 | 62 | 1012.9 |
| 20260901194011 | 90 | 309 | 0.0 | 0.0 | 0.00 | 0.00 | 0.00 | 61 | 1012.9 |
| 20260901193511 | 91 | 309 | 0.0 | 0.0 | 0.00 | 0.00 | 0.00 | 59 | 1012.9 |
| 20260901193011 | 91 | 309 | 0.0 | 0.0 | 0.00 | 0.00 | 0.00 | 55 | 1012.9 |
| 20260901192511 | 91 | 309 | 0.0 | 3.5 | 0.00 | 0.00 | 0.00 | 56 | 1013.1 |
| 20260901192011 | 91 | 306 | 0.0 | 3.5 | 0.00 | 0.00 | 0.00 | 55 | 1013.1 |
| 20260901191511 | 91 | 296 | 2.6 | 3.5 | 0.00 | 0.00 | 0.00 | 53 | 1013.1 |
| 20260901191011 | 91 | 298 | 0.0 | 3.5 | 0.00 | 0.00 | 0.00 | 54 | 1013.1 |
| 20260901190510 | 91 | 299 | 0.0 | 0.0 | 0.00 | 0.00 | 0.00 | 55 | 1013.1 |
| 20260901190014 | 91 | 297 | 0.0 | 2.6 | 0.00 | 0.00 | 0.00 | 55 | 1013.1 |
| 20260901185511 | 92 | 2 | 0.0 | 6.1 | 0.00 | 0.00 | 0.00 | 52 | 1012.9 |
| 20260901184511 | 92 | 315 | 5.2 | 7.8 | 0.00 | 0.00 | 0.00 | 52 | 1012.9 |
| 20260901184011 | 92 | 326 | 0.0 | 5.2 | 0.00 | 0.00 | 0.00 | 54 | 1013.2 |
| 20260901183512 | 92 | 327 | 0.0 | 5.2 | 0.00 | 0.00 | 0.00 | 51 | 1013.2 |
| 20260901182012 | 93 | 2.6 | 4.3 | 0.00 | 0.00 | 0.00 | 51 | 1013.4 | |
| 20260901181011 | 93 | 356 | 3.5 | 4.3 | 0.00 | 0.00 | 0.00 | 54 | 1013.8 |
| 20260901180512 | 93 | 309 | 0.0 | 3.5 | 0.00 | 0.00 | 0.00 | 51 | 1013.8 |
| 20260901180012 | 92 | 235 | 0.0 | 0.9 | 0.00 | 0.00 | 0.00 | 55 | 1013.8 |
| 20260901175510 | 92 | 301 | 0.0 | 4.3 | 0.00 | 0.00 | 0.00 | 55 | 1013.9 |
| 20260901175011 | 92 | 51 | 0.0 | 9.6 | 0.00 | 0.00 | 0.00 | 56 | 1013.9 |
| 20260901174511 | 92 | 46 | 0.0 | 9.6 | 0.00 | 0.00 | 0.00 | 55 | 1013.9 |
| 20260901174010 | 91 | 178 | 3.5 | 5.2 | 0.00 | 0.00 | 0.00 | 53 | 1013.9 |
| 20260901173511 | 91 | 134 | 0.0 | 5.2 | 0.00 | 0.00 | 0.00 | 56 | 1013.9 |
| 20260901173011 | 92 | 195 | 0.0 | 4.3 | 0.00 | 0.00 | 0.00 | 56 | 1013.9 |
| 20260901172511 | 92 | 276 | 0.0 | 4.3 | 0.00 | 0.00 | 0.00 | 58 | 1014.1 |
| 20260901172011 | 91 | 288 | 0.0 | 4.3 | 0.00 | 0.00 | 0.00 | 59 | 1014.1 |
| 20260901171512 | 91 | 321 | 0.0 | 3.5 | 0.00 | 0.00 | 0.00 | 57 | 1014.1 |
| 20260901171010 | 90 | 195 | 0.0 | 3.5 | 0.00 | 0.00 | 0.00 | 58 | 1014.4 |
| 20260901170510 | 90 | 222 | 0.0 | 5.2 | 0.00 | 0.00 | 0.00 | 59 | 1014.4 |
| 20260901170011 | 91 | 181 | 0.0 | 5.2 | 0.00 | 0.00 | 0.00 | 59 | 1014.4 |
| 20260901165511 | 90 | 300 | 2.6 | 2.6 | 0.00 | 0.00 | 0.00 | 61 | 1014.3 |
| 20260901165010 | 90 | 247 | 0.0 | 6.1 | 0.00 | 0.00 | 0.00 | 59 | 1014.3 |
| 20260901164512 | 90 | 196 | 0.0 | 7.8 | 0.00 | 0.00 | 0.00 | 61 | 1014.3 |
| 20260901164012 | 90 | 296 | 0.0 | 7.8 | 0.00 | 0.00 | 0.00 | 59 | 1014.3 |
| 20260901163510 | 90 | 181 | 0.0 | 4.3 | 0.00 | 0.00 | 0.00 | 60 | 1014.3 |
| 20260901162511 | 89 | 274 | 0.0 | 3.5 | 0.00 | 0.00 | 0.00 | 62 | 1014.2 |
| 20260901162010 | 89 | 176 | 0.0 | 3.5 | 0.00 | 0.00 | 0.00 | 63 | 1014.2 |
| 20260901161012 | 88 | 186 | 1.7 | 4.3 | 0.00 | 0.00 | 0.00 | 63 | 1014.3 |
| 20260901160512 | 88 | 186 | 0.0 | 5.2 | 0.00 | 0.00 | 0.00 | 65 | 1014.3 |
| 20260901160010 | 88 | 206 | 0.0 | 5.2 | 0.00 | 0.00 | 0.00 | 65 | 1014.3 |
| 20260901155511 | 88 | 200 | 0.0 | 0.0 | 0.00 | 0.00 | 0.00 | 65 | 1014.4 |
| 20260901155010 | 88 | 200 | 0.0 | 0.9 | 0.00 | 0.00 | 0.00 | 65 | 1014.4 |
| 20260901154511 | 88 | 307 | 0.0 | 4.3 | 0.00 | 0.00 | 0.00 | 67 | 1014.4 |
| 20260901154012 | 87 | 41 | 0.0 | 4.3 | 0.00 | 0.00 | 0.00 | 66 | 1014.4 |
| 20260901153510 | 87 | 307 | 0.9 | 3.5 | 0.00 | 0.00 | 0.00 | 68 | 1014.4 |
| 20260901152010 | 86 | 268 | 0.0 | 2.6 | 0.00 | 0.00 | 0.00 | 69 | 1014.5 |
| 20260901151010 | 86 | 330 | 0.0 | 3.5 | 0.00 | 0.00 | 0.00 | 70 | 1014.5 |
| 20260901150010 | 86 | 260 | 2.6 | 2.6 | 0.00 | 0.00 | 0.00 | 72 | 1014.5 |
| 20260901145510 | 85 | 210 | 0.0 | 3.5 | 0.00 | 0.00 | 0.00 | 71 | 1014.5 |
| 20260901145012 | 85 | 224 | 0.0 | 3.5 | 0.00 | 0.00 | 0.00 | 71 | 1014.5 |
| 20260901144510 | 85 | 343 | 0.0 | 1.7 | 0.00 | 0.00 | 0.00 | 72 | 1014.5 |
| 20260901143510 | 84 | 332 | 0.0 | 0.0 | 0.00 | 0.00 | 0.00 | 74 | 1014.6 |
| 20260901143012 | 84 | 331 | 0.0 | 1.7 | 0.00 | 0.00 | 0.00 | 74 | 1014.6 |
| 20260901142510 | 83 | 332 | 0.0 | 2.6 | 0.00 | 0.00 | 0.00 | 75 | 1014.6 |
| 20260901142010 | 83 | 332 | 0.0 | 3.5 | 0.00 | 0.00 | 0.00 | 76 | 1014.6 |
| 20260901141011 | 82 | 197 | 0.0 | 0.0 | 0.00 | 0.00 | 0.00 | 77 | 1014.6 |
| 20260901140511 | 82 | 197 | 0.0 | 0.0 | 0.00 | 0.00 | 0.00 | 78 | 1014.6 |
| 20260901140011 | 82 | 198 | 0.0 | 0.0 | 0.00 | 0.00 | 0.00 | 78 | 1014.6 |
| 20260901135511 | 82 | 198 | 0.0 | 0.0 | 0.00 | 0.00 | 0.00 | 78 | 1014.7 |
| 20260901135011 | 81 | 197 | 0.0 | 0.0 | 0.00 | 0.00 | 0.00 | 79 | 1014.7 |
| 20260901134511 | 81 | 197 | 0.0 | 0.0 | 0.00 | 0.00 | 0.00 | 81 | 1014.7 |
| 20260901134013 | 81 | 197 | 0.0 | 0.0 | 0.00 | 0.00 | 0.00 | 82 | 1014.7 |
| 20260901133511 | 80 | 197 | 0.0 | 0.0 | 0.00 | 0.00 | 0.00 | 83 | 1014.7 |
| 20260901133011 | 80 | 198 | 0.0 | 0.0 | 0.00 | 0.00 | 0.00 | 84 | 1014.7 |
| 20260901132511 | 79 | 198 | 0.0 | 0.0 | 0.00 | 0.00 | 0.00 | 85 | 1014.9 |
| 20260901132011 | 79 | 198 | 0.0 | 0.0 | 0.00 | 0.00 | 0.00 | 88 | 1014.9 |
| 20260901130511 | 77 | 198 | 0.0 | 0.0 | 0.00 | 0.00 | 0.00 | 93 | 1014.9 |
| 20260901130011 | 76 | 198 | 0.0 | 0.0 | 0.00 | 0.00 | 0.00 | 95 | 1014.9 |
| 20260901125011 | 76 | 198 | 0.0 | 0.0 | 0.00 | 0.00 | 0.00 | 99 | 1015.0 |
| 20260901124511 | 75 | 198 | 0.0 | 0.0 | 0.00 | 0.00 | 0.00 | 100 | 1015.0 |
| 20260901123511 | 74 | 198 | 0.0 | 2.6 | 0.00 | 0.00 | 0.00 | 100 | 1015.1 |
| 20260901123011 | 74 | 198 | 0.0 | 2.6 | 0.00 | 0.00 | 0.00 | 100 | 1015.1 |
| 20260901122511 | 74 | 198 | 0.0 | 2.6 | 0.00 | 0.00 | 0.00 | 100 | 1015.1 |
| 20260901122011 | 73 | 198 | 1.7 | 2.6 | 0.00 | 0.00 | 0.00 | 100 | 1015.1 |
| 20260901121511 | 73 | 198 | 1.7 | 2.6 | 0.00 | 0.00 | 0.00 | 100 | 1015.1 |
| 20260901121011 | 73 | 198 | 0.0 | 0.0 | 0.00 | 0.00 | 0.00 | 100 | 1015.0 |
| 20260901120511 | 73 | 198 | 0.0 | 0.0 | 0.00 | 0.00 | 0.00 | 100 | 1015.0 |
| 20260901120011 | 72 | 198 | 0.0 | 0.0 | 0.00 | 0.00 | 0.00 | 100 | 1015.0 |
| 20260901115511 | 72 | 198 | 0.0 | 0.0 | 0.00 | 0.00 | 0.00 | 100 | 1014.7 |
| 20260901115011 | 72 | 198 | 0.0 | 0.0 | 0.00 | 0.00 | 0.00 | 100 | 1014.7 |
| 20260901114511 | 72 | 198 | 0.0 | 0.0 | 0.00 | 0.00 | 0.00 | 100 | 1014.7 |
| 20260901114012 | 72 | 198 | 0.0 | 0.0 | 0.00 | 0.00 | 0.00 | 100 | 1014.5 |
| 20260901113511 | 72 | 199 | 0.0 | 0.0 | 0.00 | 0.00 | 0.00 | 100 | 1014.5 |
| 20260901113011 | 72 | 198 | 0.0 | 0.0 | 0.00 | 0.00 | 0.00 | 100 | 1014.5 |
| 20260901112011 | 72 | 198 | 0.0 | 0.0 | 0.00 | 0.00 | 0.00 | 100 | 1014.5 |
| 20260901111511 | 72 | 198 | 0.0 | 0.0 | 0.00 | 0.00 | 0.00 | 100 | 1014.5 |
| 20260901111011 | 71 | 198 | 0.0 | 0.0 | 0.00 | 0.00 | 0.00 | 100 | 1014.3 |
| 20260901110512 | 71 | 198 | 0.0 | 0.0 | 0.00 | 0.00 | 0.00 | 100 | 1014.3 |
| 20260901105511 | 72 | 198 | 0.0 | 0.0 | 0.00 | 0.00 | 0.00 | 100 | 1014.1 |
| 20260901105011 | 72 | 198 | 0.0 | 0.0 | 0.00 | 0.00 | 0.00 | 100 | 1014.1 |
| 20260901104511 | 72 | 198 | 0.0 | 0.0 | 0.00 | 0.00 | 0.00 | 100 | 1014.1 |
| 20260901103511 | 72 | 198 | 0.0 | 0.0 | 0.00 | 0.00 | 0.00 | 100 | 1013.9 |
| 20260901103011 | 72 | 198 | 0.0 | 0.0 | 0.00 | 0.00 | 0.00 | 100 | 1013.9 |
| 20260901102511 | 72 | 198 | 0.0 | 0.0 | 0.00 | 0.00 | 0.00 | 100 | 1013.8 |
| 20260901102011 | 72 | 198 | 0.0 | 0.0 | 0.00 | 0.00 | 0.00 | 100 | 1013.8 |
| 20260901101511 | 72 | 199 | 0.0 | 0.0 | 0.00 | 0.00 | 0.00 | 100 | 1013.8 |
| 20260901101011 | 72 | 198 | 0.0 | 0.0 | 0.00 | 0.00 | 0.00 | 100 | 1013.6 |
| 20260901100012 | 72 | 198 | 0.0 | 0.0 | 0.00 | 0.00 | 0.00 | 100 | 1013.6 |
| 20260901095511 | 72 | 198 | 0.0 | 0.0 | 0.00 | 0.00 | 0.00 | 100 | 1013.5 |
| 20260901095011 | 72 | 198 | 0.0 | 0.0 | 0.00 | 0.00 | 0.00 | 100 | 1013.5 |
| 20260901094512 | 72 | 198 | 0.0 | 0.0 | 0.00 | 0.00 | 0.00 | 100 | 1013.5 |
| 20260901094012 | 72 | 198 | 0.0 | 0.0 | 0.00 | 0.00 | 0.00 | 100 | 1013.5 |
| 20260901093511 | 72 | 198 | 0.0 | 0.0 | 0.00 | 0.00 | 0.00 | 100 | 1013.5 |
| 20260901093011 | 72 | 198 | 0.0 | 0.0 | 0.00 | 0.00 | 0.00 | 100 | 1013.5 |
| 20260901092511 | 72 | 198 | 0.0 | 0.0 | 0.00 | 0.00 | 0.00 | 100 | 1013.5 |
| 20260901091012 | 72 | 198 | 0.0 | 0.0 | 0.00 | 0.00 | 0.00 | 100 | 1013.2 |
| 20260901090511 | 72 | 198 | 0.0 | 0.0 | 0.00 | 0.00 | 0.00 | 100 | 1013.2 |
| 20260901090010 | 72 | 198 | 0.0 | 0.0 | 0.00 | 0.00 | 0.00 | 100 | 1013.2 |
| 20260901085510 | 72 | 198 | 0.0 | 0.0 | 0.00 | 0.00 | 0.00 | 100 | 1013.3 |
| 20260901085011 | 72 | 198 | 0.0 | 0.0 | 0.00 | 0.00 | 0.00 | 100 | 1013.3 |
| 20260901084511 | 73 | 198 | 0.0 | 0.0 | 0.00 | 0.00 | 0.00 | 100 | 1013.3 |
| 20260901084011 | 73 | 198 | 0.0 | 0.0 | 0.00 | 0.00 | 0.00 | 100 | 1013.1 |
| 20260901083510 | 73 | 198 | 0.0 | 0.0 | 0.00 | 0.00 | 0.00 | 100 | 1013.1 |
| 20260901082011 | 73 | 198 | 0.0 | 0.0 | 0.00 | 0.00 | 0.00 | 100 | 1013.1 |
| 20260901081512 | 73 | 198 | 0.0 | 0.0 | 0.00 | 0.00 | 0.00 | 100 | 1013.1 |
| 20260901081010 | 73 | 198 | 0.0 | 0.0 | 0.00 | 0.00 | 0.00 | 100 | 1013.2 |
| 20260901080511 | 73 | 198 | 0.0 | 0.0 | 0.00 | 0.00 | 0.00 | 100 | 1013.2 |
| 20260901080010 | 73 | 198 | 0.0 | 0.0 | 0.00 | 0.00 | 0.00 | 100 | 1013.2 |
| 20260901075511 | 73 | 198 | 0.0 | 0.0 | 0.00 | 0.00 | 0.00 | 100 | 1013.1 |
| 20260901075011 | 73 | 198 | 0.0 | 0.0 | 0.00 | 0.00 | 0.00 | 100 | 1013.1 |
| 20260901074511 | 73 | 198 | 0.0 | 0.0 | 0.00 | 0.00 | 0.00 | 100 | 1013.1 |
| 20260901074012 | 73 | 198 | 0.0 | 0.0 | 0.00 | 0.00 | 0.00 | 100 | 1012.9 |
| 20260901073511 | 73 | 198 | 0.0 | 0.0 | 0.00 | 0.00 | 0.00 | 100 | 1012.9 |
| 20260901073010 | 74 | 198 | 0.0 | 0.0 | 0.00 | 0.00 | 0.00 | 100 | 1012.9 |
| 20260901072510 | 74 | 198 | 0.0 | 0.0 | 0.00 | 0.00 | 0.00 | 100 | 1013.0 |
| 20260901072011 | 74 | 198 | 0.0 | 0.0 | 0.00 | 0.00 | 0.00 | 100 | 1013.0 |
| 20260901071511 | 74 | 198 | 0.0 | 0.0 | 0.00 | 0.00 | 0.00 | 100 | 1013.0 |
| 20260901071010 | 74 | 198 | 0.0 | 0.0 | 0.00 | 0.00 | 0.00 | 100 | 1013.0 |
| 20260901070510 | 74 | 198 | 0.0 | 0.0 | 0.00 | 0.00 | 0.00 | 100 | 1013.0 |
| 20260901065511 | 74 | 198 | 0.0 | 0.0 | 0.00 | 0.00 | 0.00 | 100 | 1012.9 |
| 20260901065010 | 74 | 198 | 0.0 | 0.0 | 0.00 | 0.00 | 0.00 | 100 | 1012.9 |
| 20260901064510 | 74 | 199 | 0.0 | 0.0 | 0.00 | 0.00 | 0.00 | 100 | 1012.9 |
| 20260901064010 | 74 | 198 | 0.0 | 0.0 | 0.00 | 0.00 | 0.00 | 100 | 1012.9 |
| 20260901063511 | 74 | 198 | 0.0 | 0.0 | 0.00 | 0.00 | 0.00 | 100 | 1012.9 |
| 20260901063010 | 74 | 198 | 0.0 | 0.0 | 0.00 | 0.00 | 0.00 | 100 | 1012.9 |
| 20260901062510 | 74 | 198 | 0.0 | 0.0 | 0.00 | 0.00 | 0.00 | 100 | 1013.0 |
| 20260901062010 | 75 | 198 | 0.0 | 0.0 | 0.00 | 0.00 | 0.00 | 100 | 1013.0 |
| 20260901061511 | 75 | 198 | 0.0 | 0.0 | 0.00 | 0.00 | 0.00 | 100 | 1013.0 |
| 20260901061010 | 75 | 198 | 0.0 | 0.0 | 0.00 | 0.00 | 0.00 | 100 | 1013.0 |
| 20260901060510 | 75 | 198 | 0.0 | 0.0 | 0.00 | 0.00 | 0.00 | 100 | 1013.0 |
| 20260901060012 | 75 | 198 | 0.0 | 0.0 | 0.00 | 0.00 | 0.00 | 100 | 1013.0 |
| 20260901055510 | 75 | 198 | 0.0 | 0.0 | 0.00 | 0.00 | 0.00 | 100 | 1013.2 |
| 20260901055010 | 75 | 198 | 0.0 | 0.0 | 0.00 | 0.00 | 0.00 | 100 | 1013.2 |
| 20260901054510 | 75 | 198 | 0.0 | 0.0 | 0.00 | 0.00 | 0.00 | 100 | 1013.2 |
| 20260901054010 | 75 | 198 | 0.0 | 0.0 | 0.00 | 0.00 | 0.00 | 100 | 1013.4 |
| 20260901053510 | 75 | 198 | 0.0 | 0.0 | 0.00 | 0.00 | 0.00 | 100 | 1013.4 |
| 20260901053010 | 75 | 198 | 0.0 | 0.0 | 0.00 | 0.00 | 0.00 | 100 | 1013.4 |
| 20260901052510 | 75 | 198 | 0.0 | 0.0 | 0.00 | 0.00 | 0.00 | 100 | 1013.3 |
| 20260901052010 | 75 | 198 | 0.0 | 0.0 | 0.00 | 0.00 | 0.00 | 100 | 1013.3 |
| 20260901051510 | 76 | 198 | 0.0 | 0.0 | 0.00 | 0.00 | 0.00 | 100 | 1013.3 |
| 20260901051010 | 76 | 198 | 0.0 | 0.0 | 0.00 | 0.00 | 0.00 | 100 | 1013.3 |
| 20260901050511 | 76 | 198 | 0.0 | 0.0 | 0.00 | 0.00 | 0.00 | 100 | 1013.3 |
| 20260901050011 | 76 | 198 | 0.0 | 0.0 | 0.00 | 0.00 | 0.00 | 100 | 1013.3 |
| 20260901045511 | 76 | 198 | 0.0 | 0.0 | 0.00 | 0.00 | 0.00 | 100 | 1013.3 |
| 20260901045011 | 76 | 198 | 0.0 | 0.0 | 0.00 | 0.00 | 0.00 | 99 | 1013.3 |
| 20260901044511 | 76 | 198 | 0.0 | 0.0 | 0.00 | 0.00 | 0.00 | 99 | 1013.3 |
| 20260901044011 | 76 | 198 | 0.0 | 0.0 | 0.00 | 0.00 | 0.00 | 99 | 1013.5 |
| 20260901043511 | 76 | 198 | 0.0 | 0.0 | 0.00 | 0.00 | 0.00 | 99 | 1013.5 |
| 20260901042011 | 77 | 198 | 0.0 | 0.0 | 0.00 | 0.00 | 0.00 | 99 | 1013.6 |
| 20260901041511 | 77 | 198 | 0.0 | 0.0 | 0.00 | 0.00 | 0.00 | 98 | 1013.6 |
| 20260901041011 | 77 | 198 | 0.0 | 0.0 | 0.00 | 0.00 | 0.00 | 98 | 1013.9 |
| 20260901040511 | 77 | 198 | 0.0 | 0.0 | 0.00 | 0.00 | 0.00 | 98 | 1013.9 |
| 20260901040011 | 77 | 198 | 0.0 | 0.0 | 0.00 | 0.00 | 0.00 | 98 | 1013.9 |
| 20260901035511 | 77 | 198 | 0.0 | 0.0 | 0.00 | 0.00 | 0.00 | 97 | 1013.7 |
| 20260901035011 | 77 | 198 | 0.0 | 0.0 | 0.00 | 0.00 | 0.00 | 97 | 1013.7 |
| 20260901034011 | 78 | 198 | 0.0 | 0.0 | 0.00 | 0.00 | 0.00 | 97 | 1013.7 |
| 20260901033511 | 78 | 198 | 0.0 | 0.0 | 0.00 | 0.00 | 0.00 | 97 | 1013.7 |
| 20260901033011 | 78 | 198 | 0.0 | 0.0 | 0.00 | 0.00 | 0.00 | 97 | 1013.7 |
| 20260901032511 | 78 | 198 | 0.0 | 0.0 | 0.00 | 0.00 | 0.00 | 97 | 1013.7 |
| 20260901032011 | 78 | 198 | 0.0 | 0.0 | 0.00 | 0.00 | 0.00 | 97 | 1013.7 |
| 20260901031511 | 78 | 199 | 0.0 | 0.0 | 0.00 | 0.00 | 0.00 | 96 | 1013.7 |
| 20260901031011 | 78 | 198 | 0.0 | 0.0 | 0.00 | 0.00 | 0.00 | 96 | 1013.7 |
| 20260901025511 | 78 | 198 | 0.0 | 0.0 | 0.00 | 0.00 | 0.00 | 96 | 1013.9 |
| 20260901025011 | 78 | 199 | 0.0 | 1.7 | 0.00 | 0.00 | 0.00 | 96 | 1013.9 |
| 20260901024511 | 79 | 198 | 0.0 | 1.7 | 0.00 | 0.00 | 0.00 | 95 | 1013.9 |
| 20260901024013 | 79 | 198 | 0.0 | 0.0 | 0.00 | 0.00 | 0.00 | 95 | 1013.8 |
| 20260901023511 | 79 | 198 | 0.0 | 0.0 | 0.00 | 0.00 | 0.00 | 95 | 1013.8 |
| 20260901023011 | 79 | 198 | 0.0 | 0.0 | 0.00 | 0.00 | 0.00 | 95 | 1013.8 |
| 20260901022011 | 79 | 198 | 0.0 | 0.0 | 0.00 | 0.00 | 0.00 | 95 | 1013.7 |
| 20260901021011 | 79 | 198 | 0.0 | 0.0 | 0.00 | 0.00 | 0.00 | 94 | 1013.8 |
| 20260901020511 | 79 | 198 | 0.0 | 0.0 | 0.00 | 0.00 | 0.00 | 94 | 1013.8 |
| 20260901015011 | 80 | 198 | 0.0 | 0.0 | 0.00 | 0.00 | 0.00 | 93 | 1013.6 |
| 20260901014513 | 80 | 198 | 0.0 | 0.0 | 0.00 | 0.00 | 0.00 | 93 | 1013.6 |
| 20260901014011 | 80 | 198 | 0.0 | 0.0 | 0.00 | 0.00 | 0.00 | 93 | 1013.4 |
| 20260901013511 | 80 | 198 | 0.0 | 0.0 | 0.00 | 0.00 | 0.00 | 92 | 1013.4 |
| 20260901013011 | 80 | 198 | 0.0 | 0.0 | 0.00 | 0.00 | 0.00 | 92 | 1013.4 |
| 20260901012011 | 80 | 198 | 0.0 | 0.0 | 0.00 | 0.00 | 0.00 | 92 | 1013.3 |
| 20260901011011 | 80 | 198 | 0.0 | 0.0 | 0.00 | 0.00 | 0.00 | 91 | 1013.2 |
| 20260901010510 | 81 | 199 | 0.0 | 0.0 | 0.00 | 0.00 | 0.00 | 90 | 1013.2 |
| 20260901005511 | 81 | 198 | 0.0 | 0.9 | 0.00 | 0.00 | 0.00 | 90 | 1012.9 |
| 20260901005012 | 81 | 198 | 0.0 | 0.9 | 0.00 | 0.00 | 0.00 | 90 | 1012.9 |
| 20260901004510 | 81 | 198 | 0.0 | 0.0 | 0.00 | 0.00 | 0.00 | 89 | 1012.9 |
| 20260901004012 | 81 | 198 | 0.0 | 0.0 | 0.00 | 0.00 | 0.00 | 89 | 1012.7 |
| 20260901003511 | 81 | 198 | 0.0 | 0.0 | 0.00 | 0.00 | 0.00 | 89 | 1012.7 |
| 20260901003011 | 81 | 198 | 0.0 | 0.0 | 0.00 | 0.00 | 0.00 | 88 | 1012.7 |
| 20260901002511 | 82 | 198 | 0.0 | 0.0 | 0.00 | 0.00 | 0.00 | 88 | 1012.5 |
| 20260901002011 | 82 | 198 | 0.0 | 0.0 | 0.00 | 0.00 | 0.00 | 87 | 1012.5 |
| 20260901001513 | 82 | 198 | 0.0 | 0.0 | 0.00 | 0.00 | 0.00 | 87 | 1012.5 |
| 20260901000510 | 82 | 198 | 0.0 | 0.0 | 0.00 | 0.00 | 0.00 | 86 | 1012.6 |
| 20260901000012 | 82 | 198 | 0.0 | 0.0 | 0.00 | 0.00 | 0.00 | 86 | 1012.6 |
| 20260831235511 | 82 | 198 | 0.0 | 0.0 | 0.00 | 0.00 | 0.00 | 86 | 1012.6 |
| 20260831235011 | 83 | 198 | 0.0 | 0.0 | 0.00 | 0.00 | 0.00 | 84 | 1012.6 |
| 20260831234511 | 83 | 198 | 0.0 | 0.0 | 0.00 | 0.00 | 0.00 | 84 | 1012.6 |
| 20260831234012 | 83 | 198 | 0.0 | 0.0 | 0.00 | 0.00 | 0.00 | 83 | 1012.6 |
| 20260831233511 | 83 | 198 | 0.0 | 2.6 | 0.00 | 0.00 | 0.00 | 83 | 1012.6 |
| 20260831233010 | 83 | 198 | 0.0 | 2.6 | 0.00 | 0.00 | 0.00 | 83 | 1012.6 |
| 20260831232510 | 83 | 198 | 0.9 | 2.6 | 0.00 | 0.00 | 0.00 | 83 | 1012.6 |
| 20260831232010 | 83 | 198 | 1.7 | 1.7 | 0.00 | 0.00 | 0.00 | 82 | 1012.6 |
| 20260831231511 | 84 | 198 | 0.0 | 0.0 | 0.00 | 0.00 | 0.00 | 81 | 1012.6 |
| 20260831231011 | 84 | 198 | 0.0 | 0.0 | 0.00 | 0.00 | 0.00 | 82 | 1012.8 |
| 20260831230511 | 84 | 198 | 0.0 | 0.0 | 0.00 | 0.00 | 0.00 | 81 | 1012.8 |
| 20260831230010 | 84 | 198 | 0.0 | 0.9 | 0.00 | 0.00 | 0.00 | 79 | 1012.8 |
| 20260831225510 | 84 | 198 | 0.0 | 0.9 | 0.00 | 0.00 | 0.00 | 78 | 1012.9 |
| 20260831225011 | 84 | 198 | 0.0 | 0.0 | 0.00 | 0.00 | 0.00 | 76 | 1012.9 |
| 20260831224511 | 85 | 198 | 0.0 | 0.0 | 0.00 | 0.00 | 0.00 | 75 | 1012.9 |
| 20260831223512 | 86 | 198 | 0.0 | 0.0 | 0.00 | 0.00 | 0.00 | 74 | 1012.9 |
| 20260831223011 | 86 | 198 | 0.0 | 0.0 | 0.00 | 0.00 | 0.00 | 73 | 1012.9 |
| 20260831222510 | 86 | 198 | 0.0 | 0.0 | 0.00 | 0.00 | 0.00 | 72 | 1013.0 |
| 20260831222010 | 86 | 198 | 0.0 | 0.0 | 0.00 | 0.00 | 0.00 | 71 | 1013.0 |
| 20260831221510 | 87 | 198 | 0.0 | 0.0 | 0.00 | 0.00 | 0.00 | 69 | 1013.0 |
| 20260831221010 | 87 | 198 | 0.0 | 0.0 | 0.00 | 0.00 | 0.00 | 69 | 1013.0 |
| 20260831220510 | 87 | 198 | 0.0 | 0.0 | 0.00 | 0.00 | 0.00 | 67 | 1013.0 |
| 20260831220011 | 87 | 198 | 0.0 | 0.0 | 0.00 | 0.00 | 0.00 | 70 | 1013.0 |
| 20260831215012 | 87 | 198 | 0.0 | 0.0 | 0.00 | 0.00 | 0.00 | 70 | 1013.2 |
| 20260831214511 | 87 | 198 | 0.0 | 0.0 | 0.00 | 0.00 | 0.00 | 67 | 1013.2 |
| 20260831214010 | 87 | 198 | 0.0 | 0.0 | 0.00 | 0.00 | 0.00 | 66 | 1013.4 |
| 20260831213510 | 87 | 198 | 0.0 | 2.6 | 0.00 | 0.00 | 0.00 | 63 | 1013.4 |
| 20260831213010 | 88 | 198 | 0.0 | 2.6 | 0.00 | 0.00 | 0.00 | 62 | 1013.4 |
| 20260831212010 | 89 | 198 | 0.0 | 5.2 | 0.00 | 0.00 | 0.00 | 60 | 1013.3 |
| 20260831211511 | 89 | 198 | 0.0 | 5.2 | 0.00 | 0.00 | 0.00 | 61 | 1013.3 |
| 20260831211010 | 89 | 181 | 0.0 | 0.0 | 0.00 | 0.00 | 0.00 | 61 | 1013.1 |
| 20260831210512 | 89 | 181 | 0.0 | 0.0 | 0.00 | 0.00 | 0.00 | 62 | 1013.1 |
| 20260831210011 | 89 | 181 | 0.0 | 0.9 | 0.00 | 0.00 | 0.00 | 60 | 1013.1 |
| 20260831205510 | 89 | 181 | 0.0 | 3.5 | 0.00 | 0.00 | 0.00 | 59 | 1013.3 |
| 20260831205011 | 89 | 181 | 0.0 | 5.2 | 0.00 | 0.00 | 0.00 | 59 | 1013.3 |
| 20260831204510 | 90 | 195 | 0.0 | 5.2 | 0.00 | 0.00 | 0.00 | 58 | 1013.3 |
| 20260831204011 | 90 | 223 | 0.0 | 4.3 | 0.00 | 0.00 | 0.00 | 56 | 1013.4 |